AirNav   Air Wisconsin pilot careers
 
 1754 users online  

84AL Blessings Landing Air Ranch Airport
Pinckard, Alabama, USA

GOING TO PINCKARD?


FAA INFORMATION EFFECTIVE 20 JUNE 2019

Location

FAA Identifier: 84AL
Lat/Long: 31-18-09.4000N / 085-31-23.3000W
31-18.156667N / 085-31.388333W
31.3026111 / -85.5231389
(estimated)
Elevation: 420 ft. / 128 m (estimated)
From city: 2 miles SE of PINCKARD, AL
Time zone: UTC -5 (UTC -6 during Standard Time)
Zip code: 36350

Airport Operations

Airport use: Private use. Permission required prior to landing
Activation date: 08/2009
Control tower: no
ARTCC: JACKSONVILLE CENTER
FSS: ANNISTON FLIGHT SERVICE STATION
NOTAMs facility: OZR (NOTAM-D service available)
Attendance: UNATNDD
Segmented circle: no

Airport Communications

UNICOM: 118.4
WX ASOS at DHN (4 nm E): PHONE 334-983-5999
WX AWOS-3PT at EDN (19 nm W): 118.9 (334-347-3524)

Nearby radio navigation aids

VOR radial/distance  VOR name  Freq  Var
RRSr281/4.8WIREGRASS VORTAC111.6002E
HEYr126/(7.9)HANCHEY VOR110.6003W
OZRr082/10.6CAIRNS VOR/DME111.2003W
EDNr092/(19.5)ENTERPRISE VOR116.6003W
MAIr327/37.1MARIANNA VORTAC114.0000E

 
NDB name  Hdg/Dist  Freq  Var  ID
HANCHEY126/8.022103WHYE .... -.-- .
LOWE110/11.826903WLOR .-.. --- .-.
BOLL WEEVIL098/23.635203WBVG -... ...- --.
SOYYA331/30.132902WSMY ... -- -.--
BLAAK259/37.234403WIWJ .. .-- .---

Airport Services

Runway Information

Runway 9/27

Dimensions: 2400 x 60 ft. / 732 x 18 m
Surface: turf, in fair condition
Operational restrictions: MKD WITH TIRES PAINTED WHITE.
RUNWAY 9  RUNWAY 27
Traffic pattern: right
RIGHT TFC RWY 9 IAW DHN TWR LOA.
left
Markings: numbers only, in good conditionnumbers only, in good condition
Obstructions: 5 ft. fence, 100 ft. from runway5 ft. fence, 100 ft. from runway

Airport Ownership and Management from official FAA records

Ownership: Privately-owned
Owner: JOSE A. LUGO
2634 HWY 134E
MIDLAND CITY, AL 36350
Phone 334-475-1402
Manager: JOSE A. LUGO
2634 HWY 134E
MIDLAND CITY, AL 36350
Phone 334-475-1402

Airport Operational Statistics

Aircraft based on the field: 1
Single engine airplanes: 1
    

Additional Remarks

HIGH VOLUME OF ROTARY AND FIXED WING TRAINING IN AREA.
LNDG AREA WITHIN DHN TWR CLASS D, CTC TWR ON 118.4 PRIOR TO ENTERING CLASS D WHEN ACTIVE.
MONITOR DOTHAN ATCT FREQ 118.4 IAW LOA DATED 10 APRIL 2006.
FOR CD CTC JACKSONVILLE ARTCC AT 904-845-1592.

Instrument Procedures

There are no published instrument procedures at 84AL.

Some nearby airports with instrument procedures:

KDHN - Dothan Regional Airport (4 nm E)
KHEY - Hanchey Army Heliport (Fort Rucker) (7 nm NW)
71J - Ozark-Blackwell Field Airport (9 nm NW)
KOZR - Cairns Army Airfield (Fort Rucker) (10 nm W)
0J6 - Headland Municipal Airport (11 nm E)
KLOR - Lowe Army Heliport (Fort Rucker) (12 nm W)
KEDN - Enterprise Municipal Airport (19 nm W)
 
Loc | Ops | Rwys | IFR | FBO | Links
Com | Nav | Svcs | Stats | Notes
Aerial photo
WARNING: Photo may not be current or correct
Aerial photo of 84AL (Blessings Landing Air Ranch Airport)
Do you have a better or more recent aerial photo of Blessings Landing Air Ranch Airport that you would like to share? If so, please send us your photo.

 
Sectional chart

 
Airport distance calculator
Flying to Blessings Landing Air Ranch Airport? Find the distance to fly.

From to 84AL

Sunrise and sunset
Times for 16-Jul-2019
 Local
(UTC-5)
 Zulu
(UTC)
Morning civil twilight05:2310:23
Sunrise05:5010:50
Sunset19:4600:46
Evening civil twilight20:1401:14

Current date and time
Zulu (UTC)  16-Jul-2019 17:46:28
Local (UTC-5)  16-Jul-2019 12:46:28
 
METAR
KDHN 
4nm E 
161653Z VRB05KT 10SM SCT037 32/22 A3019 RMK AO2 SLP218 T03170217
KHEY 
7nm W 
161658Z AUTO 26005KT 10SM SCT035 31/24 A3015 RMK AO2 SLP209 T03130242
KOZR 
10nm W 
161656Z AUTO 18006KT 10SM FEW035 FEW110 SCT180 SCT200 32/24 A3016 RMK AO2 SLP212 T03210236
KLOR 
12nm W 
161658Z AUTO 19009KT 10SM SCT036 33/25 A3015 RMK AO2 SLP190 T03270246
KSXS 
17nm W 
161658Z AUTO M 9SM FEW035 32/24 A3015 RMK AO2 SLP207 T03160236 $
KEDN 
19nm W 
161735Z AUTO 21003G16KT 10SM SCT037 SCT045 SCT050 32/23 A3016 RMK AO2 T03150228
TAF
KDHN 
4nm E 
161120Z 1612/1712 VRB03KT P6SM FEW050 SCT250 FM161400 21007KT P6SM SCT040
KOZR 
10nm W 
161600Z 1616/1722 23006KT 9999 FEW050 QNH3009INS BECMG 1620/1621 VRB06KT 9999 VCTS SCT050CB QNH3007INS BECMG 1623/1624 25006KT 9999 NSW FEW060 QNH3010INS TX35/1621Z TN22/1710Z
NOTAMs
Click for the latest NOTAMs
NOTAMs are issued by the DoD/FAA and will open in a separate window not controlled by AirNav.

 

 
 

Would you like to see your business listed on this page?

 If your business provides an interesting product or service to pilots, flight crews, aircraft, or users of the Blessings Landing Air Ranch Airport, you should consider listing it here.  To start the listing process, click on the button below
 
Add a business
 

Other Pages about Blessings Landing Air Ranch Airport

Update a link
 
Copyright © AirNav, LLC. All rights reserved. Privacy Policy  Contact